Voltar ao catálogo

SENTINEL 1B

AtivoCiênciaSSO
NORAD 41456·PAYLOAD·🇪🇺 EU

Lançado Apr 25, 2016 de Guiana Space Centre

Loading…

Próximas Passagens (próximas 24 horas)

TLE

AtualizadoSource: Space-Track

Época: Sep 14, 2026, 14:54 UTC

1 41456U 16025A   26257.62110969  .00000273  00000-0  27559-4 0  9994
2 41456  98.0870 321.8018 0012928 194.9507 165.1335 14.99459513557184

Acompanhe SENTINEL 1B em tempo real com AllMySat

Download on the App Store